sat.trackr.live / text

‹ back to catalog

STARLINK-4456

NORAD 53673 · 2022-105AB

PAYLOAD ACTIVE UNKNOWN

§ Identity

Operator
Country
US
Launch date
2022-08-31
Launch site
AFWTR
Launch vehicle
Mass (kg)
RCS (m²)

Purposes: comms

External: N2YO · Heavens-Above · Gunter

§ Orbital elements

Epoch: 2026-09-13T05:49:38.241408Z

Period
87.42 min
Inclination
97.5710°
Eccentricity
0.0008836
Mean motion
16.47258150 rev/d
Perigee alt
140.8 km
Apogee alt
152.3 km
Semi-major
6,524.7 km
B*
1.8079e-4
RAAN
147.1198°
Arg perigee
271.3952°
Mean anomaly
88.6338°
Rev number
22,222

§ Raw data

STARLINK-44561 53673U 22105AB  26256.24280372  .10066930  26922-5  18079-3 0  99922 53673  97.5710 147.1198 0008836 271.3952  88.6338 16.47258150222225

JSON: /api/v1/satellites/53673 · /tle

For live sub-satellite position, see the globe view (requires WebGL).

§ Visibility from observer

Set your observer location to see the next 7 days of passes ≥ 10°. The values pass through the URL so the page stays shareable.

No JS? Fill the form by hand. The geolocation button needs JavaScript.